#timestamp,LO_Frequency,Hit 
1502247615.4,286047051.5,N
1502247635.2,286047054.0,N
1502247655.0,286047052.4,N
1502247655.9,286047052.4,N
1502247675.8,286047054.0,N
1502247695.6,286047053.8,N
1502247715.4,286047051.3,N
1502247735.3,286047051.0,N
1502247755.1,286047051.3,N
1502247756.0,286047051.3,N
1502247775.8,286047054.1,N
1502247795.6,286047053.7,N
1502247815.5,286047053.4,N
1502247835.3,286047052.6,N
1502247855.1,286047055.1,N
1502247875.9,286047051.6,N
1502247895.7,286047053.1,N
1502247915.5,286047055.6,N
1502247935.4,286047053.0,N
1502247955.3,286047053.8,N
1502247975.2,286047051.3,N
1502247995.9,286047053.7,N
1502248015.7,286047052.3,N
1502248035.6,286047047.7,N
1502248055.4,286047050.2,N
1502248075.2,286047052.0,N
1502248095.0,286047049.8,N
1502248095.9,286047049.8,N
1502248115.8,286047050.1,N
1502248135.1,286047049.4,N
1502248136.0,286047049.4,N
1502248155.8,286047052.4,N
1502248175.2,286047052.4,N
1502248195.1,286047053.6,N
1502248215.3,286047056.9,N
1502248235.1,286047055.6,N
1502248255.9,286047053.2,N
1502248275.7,286047052.7,N
1502248295.5,286047053.8,N
1502248315.4,286047053.9,N
1502248335.2,286047057.2,N
1502248355.0,286047055.2,N
1502248375.8,286047054.7,N
1502248395.7,286047056.7,N
1502248415.5,286047056.3,N
1502248435.3,286047057.4,N
1502248455.2,286047057.7,N
1502248475.9,286047059.2,N
1502248495.7,286047059.6,N
1502248515.6,286047058.6,N
1502248535.4,286047056.5,N
1502248555.2,286047057.0,N
1502248575.1,286047058.3,N
1502248576.0,286047058.3,N
1502248595.8,286047058.6,N
1502248615.1,286047056.0,N
1502248635.8,286047058.8,N
1502248655.5,286047057.7,N
1502248675.3,286047056.8,N
1502248695.2,286047054.4,N
1502248715.0,286047052.9,N
1502248715.9,286047052.9,N
1502248735.7,286047056.8,N
1502248755.6,286047054.3,N
1502248775.4,286047058.8,N
1502248795.2,286047058.0,N
1502248815.1,286047058.0,N
1502248816.0,286047058.0,N
1502248835.8,286047060.4,N
1502248855.6,286047059.4,N
1502248875.5,286047060.6,N
1502248895.3,286047061.6,N
1502248915.1,286047061.1,N
1502248935.9,286047062.0,N
1502248955.7,286047059.1,N
1502248975.5,286047057.6,N
1502248995.3,286047060.1,N
1502249015.2,286047057.8,N
1502249035.0,286047058.0,N
1502249035.9,286047058.0,N
1502249055.7,286047061.9,N
1502249075.6,286047061.7,N
1502249095.4,286047060.2,N
1502249115.2,286047059.6,N
1502249135.1,286047060.4,N
1502249136.0,286047060.4,N
1502249155.8,286047060.0,N
1502249175.6,286047059.1,N
1502249195.5,286047059.7,N
1502249215.3,286047055.7,N
1502249235.1,286047058.1,N
1502249255.9,286047059.3,N
1502249275.7,286047061.4,N
1502249295.5,286047061.2,N
1502249315.3,286047060.0,N
1502249335.2,286047061.1,N
1502249355.0,286047061.6,N
1502249355.9,286047061.6,N
1502249375.7,286047061.8,N
1502249395.6,286047061.1,N
1502249415.4,286047063.3,N
1502249435.2,286047061.7,N
1502249455.1,286047059.0,N
1502249456.0,286047059.0,N
1502249475.8,286047062.9,N
1502249495.6,286047062.8,N
1502249515.5,286047064.0,N
1502249535.3,286047065.5,N
1502249555.1,286047068.1,N
1502249575.9,286047067.0,N
1502249595.7,286047069.3,N
1502249615.5,286047067.6,N
1502249635.3,286047067.4,N
1502249655.2,286047071.4,N
1502249675.0,286047070.9,N
1502249675.9,286047070.9,N
1502249695.7,286047069.6,N
1502249715.6,286047067.3,N
1502249735.4,286047071.5,N
1502249755.2,286047069.2,N
1502249775.9,286047069.7,N
1502249795.7,286047069.4,N
1502249815.6,286047065.7,N
1502249835.4,286047065.3,N
1502249855.2,286047065.9,N
1502249875.1,286047064.4,N
1502249876.0,286047064.4,N
1502249895.8,286047065.3,N
1502249915.6,286047068.3,N
1502249935.9,286047063.9,N
1502249955.7,286047064.6,N
1502249975.5,286047062.7,N
1502249995.4,286047064.2,N
1502250015.2,286047063.8,N
1502250035.0,286047064.0,N
1502250035.9,286047064.0,N
1502250055.8,286047066.6,N
1502250075.6,286047066.2,N
1502250095.4,286047066.4,N
1502250115.2,286047064.1,N
1502250135.1,286047064.0,N
1502250136.0,286047064.0,N
1502250155.8,286047064.2,N
1502250175.7,286047066.3,N
1502250195.5,286047062.8,N
1502250215.3,286047064.2,N
1502250235.1,286047064.2,N
1502250255.9,286047062.5,N
1502250275.7,286047060.5,N
1502250295.5,286047060.8,N
1502250315.8,286047062.9,N
1502250335.6,286047062.8,N
1502250355.5,286047064.7,N
1502250375.3,286047066.7,N
1502250395.1,286047068.0,N
1502250415.8,286047069.5,N
1502250435.7,286047067.6,N
1502250455.5,286047071.5,N
1502250475.3,286047069.5,N
1502250495.2,286047069.9,N
1502250515.9,286047071.1,N
1502250535.7,286047069.2,N
1502250555.6,286047068.8,N
1502250575.4,286047070.7,N
1502250595.2,286047071.6,N
1502250615.1,286047069.8,N
1502250616.0,286047069.8,N
1502250635.8,286047069.5,N
1502250655.6,286047068.9,N
1502250675.4,286047071.6,N
1502250695.3,286047074.6,N
1502250715.1,286047074.9,N
1502250735.8,286047073.4,N
1502250755.7,286047073.2,N
1502250775.5,286047071.1,N
1502250795.3,286047070.7,N
1502250815.2,286047071.0,N
1502250835.9,286047072.7,N
1502250855.7,286047073.5,N
1502250875.6,286047075.7,N
1502250895.4,286047072.6,N
1502250915.2,286047074.8,N
1502250935.0,286047070.1,N
1502250936.0,286047070.1,N
1502250955.8,286047070.2,N
1502250975.6,286047072.0,N
1502250995.4,286047072.8,N
1502251015.3,286047074.6,N
1502251035.1,286047074.4,N
1502251055.8,286047071.9,N
1502251075.7,286047074.5,N
1502251095.5,286047077.6,N
1502251115.3,286047075.0,N
1502251135.1,286047071.9,N
1502251155.9,286047074.7,N
1502251175.7,286047072.2,N
1502251195.5,286047073.0,N
